142  
ASUS46 KPDT 230325  
RWRPDT  
PENDLETON REGIONAL WEATHER ROUNDUP  
NATIONAL WEATHER SERVICE PENDLETON OREGON  
700 PM PST THU FEB 22 2024  
 
NOTE: FAIR INDICATES FEW OR NO CLOUDS BELOW 12,000 FEET WITH NO  
SIGNIFICANT WEATHER AND/OR S TO VISIBILITY
.  
 
# INDICATES UNOFFICIAL STATION AND DATA  
 
WAZ520-230410-  
EAST SLOPES OF WASHINGTON CASCADES  
 
CITY SKY/WX TMP DP RH WIND PRES REMARKS
 
#BULLFROG N/A 36 36 100 CALM N/A  
#CLE ELUM HS N/A 38 34 85 CALM 30.22R  
#ELK HTS DOT N/A 37 35 92 S3 N/A  
#GLENWOOD N/A 38 34 85 CALM 30.35R  
#NILE N/A 38 34 85 CALM N/A  
#TROUT LAKE 1NE N/A 37 35 92 CALM 30.35R  
#TROUT LAKE 1E N/A 32 31 96 CALM 30.32R  

 
 
WAZ521-230410-  
SIMCOE HIGHLANDS  
 
CITY SKY/WX TMP DP RH WIND PRES REMARKS
 
#SATUS PASS DOT N/A 36 34 92 N3 N/A  
#CENTERVILLE 1SWN/A 42 38 86 CALM 30.29R  
#LYLE 6NE N/A 45 40 82 SW1 30.33R  
#PITT 4SE N/A N/A N/A N/A CALM 30.27R  

 
 
WAZ026-230410-  
KITTITAS VALLEY  
 
CITY SKY/WX TMP DP RH WIND PRES REMARKS
 
ELLENSBURG AP FAIR 37 33 85 N6 30.31R  
#ELLENSBURG CWU N/A 41 37 86 SE1 30.31R  
#ELLENSBURG 1E N/A 39 36 89 CALM 30.39R  
#KITTITAS 3S N/A 35 32 89 CALM 30.36R  
#MANASTASH RDG N/A 42 37 82 S5 N/A  
#ROCKY CYN DOT N/A 39 36 89 W2 N/A  
#RYEGRASS DOT N/A 39 36 89 E1 N/A  
#THORP 6N N/A 36 33 89 CALM 30.27R  

 
 
WAZ027-230410-  
YAKIMA VALLEY  
 
CITY SKY/WX TMP DP RH WIND PRES REMARKS
 
SUNNYSIDE AP FAIR 42 38 86 CALM 30.32R  
YAKIMA AIRPORT FAIR 41 34 76 W6 30.32R  
#MABTON N/A 47 37 68 CALM 30.32R  
#NACHES 2SW N/A 41 35 79 CALM 30.29R  
#OUTLOOK DOT N/A 48 39 71 N3 N/A  
#PARKER DOT N/A 48 38 68 S1 N/A  
#TERRACE HTS N/A 42 37 82 CALM 30.31R  
#I82 S UMTANUM RN/A 40 29 64 NE6 N/A  
#UNION GAP DOT N/A 45 38 76 W2 N/A  
#ZILLAH DOT N/A 47 38 71 N5 N/A  

 
 
WAZ028-230410-  
LOWER COLUMBIA BASIN...WASHINGTON  
 
CITY SKY/WX TMP DP RH WIND PRES REMARKS
 
PASCO FAIR 43 38 82 CALM 30.33R  
PROSSER AWOS N/A 46 45 96 CALM 30.35R  
RICHLAND AWOS FAIR 45 40 82 W5 30.34R  
#BASIN CITY 5SW N/A 45 40 82 NE3 30.30R  
#BENTON CITY N/A 46 39 76 CALM 30.24R  
#CONNELL 5N N/A 42 40 93 CALM 30.35R  
#ELTOPIA 6NW N/A 45 41 86 CALM 29.28R  
#KENNEWICK 3S N/A 45 38 76 CALM 30.33R  
#PROSSER DOT N/A 46 40 79 E1 N/A  
#SAGEMOOR 2W N/A 49 41 74 CALM 30.32R  

 
 
WAZ029-230410-  
FOOTHILLS OF THE BLUES...WASHINGTON  
 
CITY SKY/WX TMP DP RH WIND PRES REMARKS
 
WALLA WALLA AP FAIR 45 38 76 E7 30.31R  
#CLYDE 6NW N/A 40 36 85 CALM 30.34R  
#DELANEY DOT N/A 42 36 79 CALM N/A  
#PRESCOTT N/A 43 37 79 CALM 30.32R  
#WALLA WALLA 5E N/A 42 38 86 S2 N/A  
#WHITMAN MISSIONN/A 48 41 77 CALM 30.35R  

 
 
WAZ030-230410-  
BLUE MOUNTAINS...WASHINGTON  
 
CITY SKY/WX TMP DP RH WIND PRES REMARKS
 

 
 
ORZ009-041-WAZ024-230410-  
COLUMBIA RIVER GORGE  
 
CITY SKY/WX TMP DP RH WIND PRES REMARKS
 
HOOD RIVER AP FAIR 39 37 92 CALM 30.32R  
THE DALLES AP FAIR 47 39 74 W7 30.32R  
#CELILO DOT N/A 49 33 54 S2 N/A  
#LYLE N/A 44 40 86 N3 30.33R  
#MARYHILL N/A 48 38 68 CALM N/A  
 

 
 
ORZ510-230410-  
NORTH CENTRAL OREGON  
 
CITY SKY/WX TMP DP RH WIND PRES REMARKS
 
#ANTELOPE N/A 41 35 79 CALM 30.21R  
#COW CYN RST AREN/A 39 33 79 CALM N/A  
#DUFUR N/A 35 33 92 CALM 30.31R  
#DUFUR 9E N/A 39 34 82 CALM 30.39R  
#GRASS VALLEY 1SN/A 39 37 92 CALM 30.31R  
#KENT DOT N/A 40 29 64 NE7 N/A  
#MORO SCHOOL N/A 61 51 70 CALM 30.17R  
#SHANIKO 5WSW N/A 39 34 82 N8 N/A  
#WAPANITIA AIRPON/A 34 31 89 CALM 30.36R  
#WASCO DOT N/A 39 36 89 CALM N/A  
#WASCO 5NE N/A 40 35 82 CALM 30.32R  

 
 
ORZ511-230410-  
CENTRAL OREGON  
 
CITY SKY/WX TMP DP RH WIND PRES REMARKS
 
BEND AIRPORT FAIR 39 32 76 W6 30.26R  
MADRAS AIRPORT FAIR 34 32 92 CALM 30.30R  
PRINEVILLE AP FAIR 37 32 82 CALM 30.26R  
REDMOND AIRPORT FAIR 41 32 70 W5 30.26R  
#ASHWOOD SCHOOL N/A 40 34 79 CALM 30.21R  
#CULVER N/A 36 31 82 CALM 29.44R  
#PRINEVILLE N/A 42 35 76 CALM 30.39R  
 

 
 
 
ORZ509-230410-  
EAST SLOPES OF OREGON CASCADES  
 
CITY SKY/WX TMP DP RH WIND PRES REMARKS
 
SISTERS AWOS N/A 37 32 82 CALM 30.22R  
SUNRIVER AWOS MOCLEAR 36 28 72 N6 30.30R  
#BLUE BOX PASS N/A 35 N/A N/A CALM N/A  
#LA PINE DOT N/A 40 29 64 NE2 N/A  
#LAVA BUTTE DOT N/A 35 31 85 CALM N/A  
#SISTERS ODOT N/A 35 30 82 CALM N/A  
#WANOGA BUTTE D N/A 32 30 92 N1 N/A  
 

 
 
ORZ044-230410-  
LOWER COLUMBIA BASIN...OREGON  
 
CITY SKY/WX TMP DP RH WIND PRES REMARKS
 
HERMISTON FAIR 43 37 79 E3 30.32R  
#BOARDMAN SCHOOLN/A 47 38 71 CALM 30.28R  
#ECHO 8SW N/A 42 37 82 CALM 30.33R  
#I-84 EX 198 DOTN/A 45 36 70 N3 N/A  
#UMATILLA N/A 47 41 79 CALM 30.35R  

 
 
ORZ507-230410-  
NORTHERN FOOTHILLS OF THE BLUES  
 
CITY SKY/WX TMP DP RH WIND PRES REMARKS
 
PENDLETON AIRPT FAIR 44 37 76 NE10 30.31R  
#ATHENA N/A 46 38 73 CALM 30.33R  
#CAYUSE N/A 45 38 76 CALM 30.30R  
#HELIX SCHOOL N/A 41 36 82 CALM 30.34R  
#HELIX 3N N/A 41 36 82 CALM 30.30R  
#HOLDMAN 5SE N/A 44 38 79 CALM 30.30R  
#HOLDMAN 6E N/A 44 39 82 CALM 30.10R  
#M-FREEWATER 5SEN/A 43 37 79 CALM 30.29R  
#PDT SUNRIDGE N/A 44 37 76 CALM 30.29R  
#PENDLETON 6SE N/A 43 37 79 CALM 30.27R  
#TUTUILLA N/A 43 36 76 CALM 30.34R  
#UMAPINE 2E N/A 43 37 79 CALM 30.31R  
 

 
 
ORZ508-230410-  
SOUTHERN FOOTHILLS OF THE BLUES  
 
CITY SKY/WX TMP DP RH WIND PRES REMARKS
 
LEXINGTON CLOUDY 46 41 83 VRB3 30.33R  
#AJAX N/A 42 38 86 NE3 30.29R  
#HEPPNER EOC N/A 42 37 82 CALM 30.27R  
#HEPPNER 4NE N/A 38 35 89 E3 30.35R  
#OLEX 4N N/A 47 41 79 CALM 30.32R  
#RUGGS 2SW N/A 40 36 85 CALM 30.36R  
 

 
 
ORZ502-503-230410-  
BLUE MOUNTAINS  
 
CITY SKY/WX TMP DP RH WIND PRES REMARKS
 
MEACHAM FAIR 32 30 92 CALM 30.29R  
#BATTLE MTN DOT N/A 35 33 92 N1 N/A  
#HARDMAN 10S N/A 36 34 92 CALM 30.46R  
#LADD CYN SMT N/A 36 32 85 CALM N/A  
#LADD CREEK ODOTN/A 41 34 76 NW2 N/A  
#N POWDER DOT N/A 42 32 67 CALM N/A  
#TOLLGATE N/A 32 29 89 CALM 30.27R  
#WESTON 4E N/A 40 35 82 CALM 30.30R  

 
 
ORZ505-230410-  
JOHN DAY BASIN  
 
CITY SKY/WX TMP DP RH WIND PRES REMARKS
 
JOHN DAY FAIR 41 28 59 S6 30.28R  
#MITCHELL 8NW N/A 43 34 70 CALM 30.28R  
#MT. VERNON 5SE N/A 41 30 65 S1 30.27R  

 
 
ORZ506-230410-  
OCHOCO AND JOHN DAY HIGHLANDS  
 
CITY SKY/WX TMP DP RH WIND PRES REMARKS
 
#BUCK CREEK DOT N/A 35 33 92 S7 N/A  
#HORSE RIDGE DO N/A 41 32 70 NW5 N/A  
#KEYES SMT DOT N/A 34 27 75 CALM N/A  
#PAULINA ODOT N/A 38 N/A N/A CALM N/A  
#SENECA 9NW N/A 31 28 88 CALM 30.35R  

 
 
ORZ049-230410-  
GRANDE RONDE VALLEY  
 
CITY SKY/WX TMP DP RH WIND PRES REMARKS
 
LA GRANDE CLOUDY 42 36 79 NW6 30.30R  
#COVE N/A 42 38 86 CALM 30.29S  
#COVE SCHOOL N/A 42 35 76 CALM 30.27R  
#COVE 6NW N/A 43 37 79 CALM 30.33R  
#ELGIN 1E N/A 37 34 89 CALM N/A  
#IMBLER SCHOOL N/A 39 34 82 CALM 30.23R  
#ISLAND CITY 4N N/A 46 43 89 CALM 30.29S  
#LADD CYN DOT N/A 44 37 76 SE6 N/A  
#UNION 1S N/A 45 39 79 CALM 30.34S  

 
 
ORZ050-230410-  
WALLOWA COUNTY  
 
CITY SKY/WX TMP DP RH WIND PRES REMARKS
 
JOSEPH AIRPORT MOCLDY 34 28 78 CALM 30.31R  
#IMNAHA SCHOOL N/A 44 35 70 CALM 30.36R  
#JOSEPH 3N N/A 34 32 92 CALM 30.26R  
#LOSTINE 3SE N/A 36 31 82 W1 30.37S  
#MT HOWARD 8000 N/A 23 19 84 CALM 30.16S  
#WALLOWA SCHOOL N/A 35 30 82 CALM 30.36R  
 

 
 
CLICK HERE TO GO TO PREVIOUS BULLETINS.

The Nexlab OR Page
The Nexlab WA Page Main Text Page